Regional Weather Roundup
Issued by NWS

Home | Current Version | Previous Version | Text Only | Print | Product List | Glossary Off
Versions: 1 2 3 4 5 6 7 8 9 10 11 12 13 14 15 16 17 18 19 20 21 22 23 24 25 26 27 28 29 30 31 32 33 34 35 36 37 38 39 40 41 42 43 44 45 46 47 48 49 50

000
ASUS43 KFSD 302210
RWRSD

WEATHER ROUNDUP FOR SOUTH DAKOTA
NATIONAL WEATHER SERVICE SIOUX FALLS SD
500 PM CDT MON MAR 30 2015

NOTE: "FAIR" INDICATES FEW OR NO CLOUDS BELOW 12,000 FEET WITH NO
SIGNIFICANT WEATHER AND/OR OBSTRUCTIONS TO VISIBILITY.


SDZ001>005-009-010-012>017-302300-
NORTHWEST AND NORTH CENTRAL SOUTH DAKOTA

CITY           SKY/WX    TMP DP  RH WIND       PRES   REMARKS
BUFFALO          N/A     66  25  21 NW21G30   29.94S
FAITH            N/A     70  27  20 NW20G28   29.96S
MOBRIDGE       SUNNY     71  28  20 NW16      29.89S
$$

SDZ012>016-024>037-041>051-057-063-072>074-302300-
SOUTHWEST AND SOUTH CENTRAL SOUTH DAKOTA

CITY           SKY/WX    TMP DP  RH WIND       PRES   REMARKS
RAPID CTY ARPT MOSUNNY   68  29  23 N28G33    30.00F
PIERRE         SUNNY     73  28  18 NW24G33   29.91S
CUSTER         MOSUNNY   60  20  21 MISG      30.08F
ELLSWORTH AFB  PTSUNNY   67  30  25 N20       30.00F
PHILIP         SUNNY     72  24  16 NW18G32   29.96F
PINE RIDGE     SUNNY     70  26  19 SE5       30.02F
SPEARFISH      FAIR      63  28  27 NW17      30.06F
WINNER         FAIR      74  27  17 NW21G30   29.94F
$$

SDZ004>011-016>023-039-040-302300-
NORTHEAST SOUTH DAKOTA

CITY           SKY/WX    TMP DP  RH WIND       PRES   REMARKS
ABERDEEN       MOSUNNY   70  31  23 NW28G35   29.86R
WATERTOWN      SUNNY     69  35  28 N24G33    29.83R
SISSETON         N/A     68  35  29 N28G40    29.79R
$$

SDZ017-020-022-023-036>040-048>070-302300-
SOUTHEAST SOUTH DAKOTA

CITY           SKY/WX    TMP DP  RH WIND       PRES   REMARKS
SIOUX FALLS    PTSUNNY   73  29  19 NW21G38   29.83S
HURON          MOSUNNY   73  28  18 NW24G36   29.84S
CHAMBERLAIN    SUNNY     72  26  17 NW25G33   29.91R
MITCHELL       MOSUNNY   76  28  17 NW25G32   29.86S
YANKTON        MOSUNNY   73  30  20 NW23G30   29.87R
$$

ABBREVIATIONS USED IN REMARKS
   TC - TEMPERATURE IN CELSIUS
  WCI - WIND CHILL INDEX
   HX - HEAT INDEX
  VSB - VISIBILITY



USA.gov is the U.S. government's official web portal to all federal, state and local government web resources and services.